Time,TemperatureF,DewpointF,PressureIn,WindDirection,WindDirectionDegrees,WindSpeedMPH,WindSpeedGustMPH,Humidity,HourlyPrecipIn,Conditions,Clouds,dailyrainin,SoftwareType,DateUTC
2013-01-19 00:00:00,38.7,26.8,30.07,WSW,247,14.0,23.0,62,0.00,,---,0.01,VWS V14.01,2013-01-19 05:00:00,
2013-01-19 00:01:00,38.7,26.8,30.07,WSW,248,13.0,23.0,62,0.00,,---,0.01,VWS V14.01,2013-01-19 05:01:00,
2013-01-19 00:02:00,38.8,26.9,30.07,WSW,248,14.0,23.0,62,0.00,,---,0.01,VWS V14.01,2013-01-19 05:02:00,
2013-01-19 00:03:00,38.9,27.0,30.07,WSW,250,12.0,23.0,62,0.00,,---,0.01,VWS V14.01,2013-01-19 05:03:00,
2013-01-19 00:08:00,38.9,27.0,30.07,WSW,251,18.0,19.0,62,0.00,,---,0.00,VWS V14.01,2013-01-19 05:08:00,
2013-01-19 00:13:00,38.9,27.0,30.07,West,260,13.0,21.0,62,0.00,,---,0.00,VWS V14.01,2013-01-19 05:13:00,
2013-01-19 00:18:00,39.1,27.2,30.07,WSW,239,10.0,22.0,62,0.00,,---,0.00,VWS V14.01,2013-01-19 05:18:00,
2013-01-19 00:23:00,39.0,27.1,30.07,West,259,14.0,22.0,62,0.00,,---,0.00,VWS V14.01,2013-01-19 05:23:00,
2013-01-19 00:28:00,39.1,26.8,30.07,WSW,257,14.0,22.0,61,0.00,,---,0.00,VWS V14.01,2013-01-19 05:28:00,
2013-01-19 00:30:00,39.7,27.8,30.06,WSW,243,8.0,30.0,62,0.00,,---,0.00,VWS V14.01,2013-01-19 05:30:00,
2013-01-19 00:33:00,39.0,27.1,30.07,West,263,11.0,22.0,62,0.00,,---,0.00,VWS V14.01,2013-01-19 05:33:00,
2013-01-19 00:38:00,39.2,26.9,30.06,WSW,249,14.0,23.0,61,0.00,,---,0.00,VWS V14.01,2013-01-19 05:38:00,
2013-01-19 00:43:00,39.2,26.9,30.06,WSW,249,11.0,23.0,61,0.00,,---,0.00,VWS V14.01,2013-01-19 05:43:00,
2013-01-19 00:48:00,39.6,27.3,30.06,West,260,11.0,26.0,61,0.00,,---,0.00,VWS V14.01,2013-01-19 05:48:00,
2013-01-19 00:53:00,39.5,27.2,30.06,West,261,11.0,26.0,61,0.00,,---,0.00,VWS V14.01,2013-01-19 05:53:00,
2013-01-19 00:58:00,39.8,27.5,30.06,WSW,239,15.0,26.0,61,0.00,,---,0.00,VWS V14.01,2013-01-19 05:58:00,
2013-01-19 01:00:00,39.9,27.6,30.05,West,264,17.0,24.0,61,0.00,,---,0.00,VWS V14.01,2013-01-19 06:00:00,
2013-01-19 01:03:00,40.0,27.6,30.06,WSW,252,17.0,26.0,61,0.00,,---,0.00,VWS V14.01,2013-01-19 06:03:00,
2013-01-19 01:08:00,40.1,27.4,30.06,West,274,15.0,30.0,60,0.00,,---,0.00,VWS V14.01,2013-01-19 06:08:00,
2013-01-19 01:13:00,40.0,27.6,30.06,SW,215,23.0,30.0,61,0.00,,---,0.00,VWS V14.01,2013-01-19 06:13:00,
2013-01-19 01:18:00,39.8,27.5,30.06,WSW,243,10.0,30.0,61,0.00,,---,0.00,VWS V14.01,2013-01-19 06:18:00,
2013-01-19 01:23:00,39.8,27.5,30.06,WSW,243,11.0,30.0,61,0.00,,---,0.00,VWS V14.01,2013-01-19 06:23:00,
2013-01-19 01:28:00,39.7,27.4,30.05,WSW,242,15.0,30.0,61,0.00,,---,0.00,VWS V14.01,2013-01-19 06:28:00,
2013-01-19 01:30:00,39.8,27.9,30.05,WSW,245,18.0,25.0,62,0.00,,---,0.00,VWS V14.01,2013-01-19 06:30:00,
2013-01-19 01:33:00,39.7,27.8,30.06,SW,236,15.0,30.0,62,0.00,,---,0.00,VWS V14.01,2013-01-19 06:33:00,
2013-01-19 01:38:00,39.7,27.8,30.05,West,260,12.0,20.0,62,0.00,,---,0.00,VWS V14.01,2013-01-19 06:38:00,
2013-01-19 01:43:00,39.8,27.5,30.05,SSW,200,7.0,21.0,61,0.00,,---,0.00,VWS V14.01,2013-01-19 06:43:00,
2013-01-19 01:48:00,39.9,27.6,30.05,WSW,240,19.0,24.0,61,0.00,,---,0.00,VWS V14.01,2013-01-19 06:48:00,
2013-01-19 01:53:00,39.8,27.9,30.05,WSW,248,13.0,24.0,62,0.00,,---,0.00,VWS V14.01,2013-01-19 06:53:00,
2013-01-19 01:58:00,40.0,27.6,30.06,WSW,254,11.0,24.0,61,0.00,,---,0.00,VWS V14.01,2013-01-19 06:58:00,
2013-01-19 02:00:00,39.6,28.1,30.06,WSW,245,15.0,27.0,63,0.00,,---,0.00,VWS V14.01,2013-01-19 07:00:00,
2013-01-19 02:03:00,39.9,28.0,30.05,West,263,11.0,24.0,62,0.00,,---,0.00,VWS V14.01,2013-01-19 07:03:00,
2013-01-19 02:08:00,40.0,27.6,30.05,WSW,240,9.0,24.0,61,0.00,,---,0.00,VWS V14.01,2013-01-19 07:08:00,
2013-01-19 02:13:00,39.9,27.6,30.05,WSW,251,21.0,24.0,61,0.00,,---,0.00,VWS V14.01,2013-01-19 07:13:00,
2013-01-19 02:18:00,39.9,28.0,30.05,West,280,17.0,25.0,62,0.00,,---,0.00,VWS V14.01,2013-01-19 07:18:00,
2013-01-19 02:23:00,39.9,28.0,30.06,WSW,245,14.0,25.0,62,0.00,,---,0.00,VWS V14.01,2013-01-19 07:23:00,
2013-01-19 02:28:00,39.8,27.9,30.05,WSW,245,17.0,25.0,62,0.00,,---,0.00,VWS V14.01,2013-01-19 07:28:00,
2013-01-19 02:30:00,39.2,28.1,30.06,WSW,254,14.0,23.0,64,0.00,,---,0.00,VWS V14.01,2013-01-19 07:30:00,
2013-01-19 02:33:00,39.8,27.9,30.05,WSW,247,12.0,25.0,62,0.00,,---,0.00,VWS V14.01,2013-01-19 07:33:00,
2013-01-19 02:38:00,39.7,27.8,30.05,WSW,253,14.0,20.0,62,0.00,,---,0.00,VWS V14.01,2013-01-19 07:38:00,
2013-01-19 02:43:00,39.7,28.1,30.05,WSW,247,19.0,22.0,63,0.00,,---,0.00,VWS V14.01,2013-01-19 07:43:00,
2013-01-19 02:48:00,39.8,27.9,30.06,West,260,17.0,27.0,62,0.00,,---,0.00,VWS V14.01,2013-01-19 07:48:00,
2013-01-19 02:53:00,39.7,27.8,30.06,West,262,20.0,27.0,62,0.00,,---,0.00,VWS V14.01,2013-01-19 07:53:00,
2013-01-19 02:58:00,39.6,28.1,30.06,West,266,11.0,27.0,63,0.00,,---,0.00,VWS V14.01,2013-01-19 07:58:00,
2013-01-19 03:00:00,39.3,28.5,30.05,WSW,251,12.0,25.0,65,0.00,,---,0.00,VWS V14.01,2013-01-19 08:00:00,
2013-01-19 03:03:00,39.6,28.1,30.06,West,264,20.0,27.0,63,0.00,,---,0.00,VWS V14.01,2013-01-19 08:03:00,
2013-01-19 03:08:00,39.5,28.0,30.06,WSW,253,15.0,21.0,63,0.00,,---,0.00,VWS V14.01,2013-01-19 08:08:00,
2013-01-19 03:13:00,39.5,28.0,30.05,WSW,243,16.0,23.0,63,0.00,,---,0.00,VWS V14.01,2013-01-19 08:13:00,
2013-01-19 03:18:00,39.3,28.2,30.06,WSW,258,10.0,23.0,64,0.00,,---,0.00,VWS V14.01,2013-01-19 08:18:00,
2013-01-19 03:23:00,39.4,28.2,30.06,WSW,258,13.0,23.0,64,0.00,,---,0.00,VWS V14.01,2013-01-19 08:23:00,
2013-01-19 03:28:00,39.2,28.1,30.06,West,262,9.0,23.0,64,0.00,,---,0.00,VWS V14.01,2013-01-19 08:28:00,
2013-01-19 03:30:00,39.0,28.2,30.04,SW,236,16.0,28.0,65,0.00,,---,0.00,VWS V14.01,2013-01-19 08:30:00,
2013-01-19 03:33:00,39.2,28.4,30.06,WSW,248,16.0,23.0,65,0.00,,---,0.00,VWS V14.01,2013-01-19 08:33:00,
2013-01-19 03:38:00,39.3,28.2,30.05,WSW,248,13.0,20.0,64,0.00,,---,0.00,VWS V14.01,2013-01-19 08:38:00,
2013-01-19 03:43:00,39.2,28.4,30.05,WSW,258,14.0,20.0,65,0.00,,---,0.00,VWS V14.01,2013-01-19 08:43:00,
2013-01-19 03:48:00,39.2,28.1,30.05,West,264,21.0,23.0,64,0.00,,---,0.00,VWS V14.01,2013-01-19 08:48:00,
2013-01-19 03:53:00,39.3,28.5,30.05,WSW,251,18.0,23.0,65,0.00,,---,0.00,VWS V14.01,2013-01-19 08:53:00,
2013-01-19 03:58:00,39.3,28.2,30.05,West,266,16.0,25.0,64,0.00,,---,0.00,VWS V14.01,2013-01-19 08:58:00,
2013-01-19 04:00:00,38.7,28.7,30.03,WSW,246,15.0,22.0,67,0.00,,---,0.00,VWS V14.01,2013-01-19 09:00:00,
2013-01-19 04:03:00,39.3,28.5,30.05,West,272,16.0,25.0,65,0.00,,---,0.00,VWS V14.01,2013-01-19 09:03:00,
2013-01-19 04:08:00,39.2,28.4,30.04,WSW,256,16.0,24.0,65,0.00,,---,0.00,VWS V14.01,2013-01-19 09:08:00,
2013-01-19 04:13:00,39.1,28.3,30.04,WSW,252,12.0,24.0,65,0.00,,---,0.00,VWS V14.01,2013-01-19 09:13:00,
2013-01-19 04:18:00,39.1,28.3,30.04,West,262,10.0,24.0,65,0.00,,---,0.00,VWS V14.01,2013-01-19 09:18:00,
2013-01-19 04:23:00,39.1,28.3,30.04,WSW,253,19.0,24.0,65,0.00,,---,0.00,VWS V14.01,2013-01-19 09:23:00,
2013-01-19 04:28:00,39.2,28.4,30.04,WSW,241,13.0,28.0,65,0.00,,---,0.00,VWS V14.01,2013-01-19 09:28:00,
2013-01-19 04:30:00,38.3,28.7,30.03,WSW,256,14.0,21.0,68,0.00,,---,0.00,VWS V14.01,2013-01-19 09:30:00,
2013-01-19 04:33:00,39.1,28.3,30.04,WSW,237,14.0,28.0,65,0.00,,---,0.00,VWS V14.01,2013-01-19 09:33:00,
2013-01-19 04:38:00,39.1,28.3,30.04,WSW,249,13.0,22.0,65,0.00,,---,0.00,VWS V14.01,2013-01-19 09:38:00,
2013-01-19 04:43:00,38.8,28.4,30.04,WSW,255,13.0,22.0,66,0.00,,---,0.00,VWS V14.01,2013-01-19 09:43:00,
2013-01-19 04:48:00,38.9,28.5,30.04,West,264,10.0,22.0,66,0.00,,---,0.00,VWS V14.01,2013-01-19 09:48:00,
2013-01-19 04:53:00,38.8,28.4,30.04,WSW,248,20.0,22.0,66,0.00,,---,0.00,VWS V14.01,2013-01-19 09:53:00,
2013-01-19 04:58:00,38.7,28.7,30.03,WSW,251,19.0,22.0,67,0.00,,---,0.00,VWS V14.01,2013-01-19 09:58:00,
2013-01-19 05:00:00,38.0,28.8,30.03,WSW,245,10.0,19.0,69,0.00,,---,0.00,VWS V14.01,2013-01-19 10:00:00,
2013-01-19 05:03:00,38.7,28.7,30.03,WSW,254,13.0,22.0,67,0.00,,---,0.00,VWS V14.01,2013-01-19 10:03:00,
2013-01-19 05:08:00,38.7,28.7,30.03,WSW,255,18.0,20.0,67,0.00,,---,0.00,VWS V14.01,2013-01-19 10:08:00,
2013-01-19 05:13:00,38.5,28.5,30.03,West,260,11.0,20.0,67,0.00,,---,0.00,VWS V14.01,2013-01-19 10:13:00,
2013-01-19 05:18:00,38.4,28.4,30.03,West,272,12.0,20.0,67,0.00,,---,0.00,VWS V14.01,2013-01-19 10:18:00,
2013-01-19 05:23:00,38.3,28.7,30.03,WSW,253,12.0,20.0,68,0.00,,---,0.00,VWS V14.01,2013-01-19 10:23:00,
2013-01-19 05:28:00,38.4,28.8,30.03,WSW,256,12.0,20.0,68,0.00,,---,0.00,VWS V14.01,2013-01-19 10:28:00,
2013-01-19 05:30:00,37.8,28.9,30.03,WSW,253,10.0,17.0,70,0.00,,---,0.00,VWS V14.01,2013-01-19 10:30:00,
2013-01-19 05:33:00,38.3,28.7,30.03,WSW,258,15.0,21.0,68,0.00,,---,0.00,VWS V14.01,2013-01-19 10:33:00,
2013-01-19 05:38:00,38.2,28.6,30.03,WSW,246,16.0,18.0,68,0.00,,---,0.00,VWS V14.01,2013-01-19 10:38:00,
2013-01-19 05:43:00,38.2,28.6,30.03,WSW,248,14.0,19.0,68,0.00,,---,0.00,VWS V14.01,2013-01-19 10:43:00,
2013-01-19 05:48:00,38.1,28.8,30.03,WSW,257,15.0,19.0,69,0.00,,---,0.00,VWS V14.01,2013-01-19 10:48:00,
2013-01-19 05:53:00,38.2,28.9,30.03,West,261,12.0,19.0,69,0.00,,---,0.00,VWS V14.01,2013-01-19 10:53:00,
2013-01-19 05:58:00,38.0,28.8,30.03,WSW,248,9.0,19.0,69,0.00,,---,0.00,VWS V14.01,2013-01-19 10:58:00,
2013-01-19 06:00:00,37.9,29.0,30.02,WSW,251,13.0,19.0,70,0.00,,---,0.00,VWS V14.01,2013-01-19 11:00:00,
2013-01-19 06:03:00,38.0,28.8,30.03,WSW,241,13.0,19.0,69,0.00,,---,0.00,VWS V14.01,2013-01-19 11:03:00,
2013-01-19 06:08:00,37.9,28.6,30.03,West,259,11.0,14.0,69,0.00,,---,0.00,VWS V14.01,2013-01-19 11:08:00,
2013-01-19 06:13:00,37.9,28.6,30.03,WSW,257,12.0,16.0,69,0.00,,---,0.00,VWS V14.01,2013-01-19 11:13:00,
2013-01-19 06:30:00,37.9,29.0,30.02,WSW,241,12.0,18.0,70,0.00,,---,0.00,VWS V14.01,2013-01-19 11:30:00,
2013-01-19 07:00:00,37.8,29.2,30.01,WSW,243,7.0,21.0,71,0.00,,---,0.00,VWS V14.01,2013-01-19 12:00:00,
2013-01-19 07:30:00,38.3,29.7,30.00,WSW,249,9.0,20.0,71,0.00,,---,0.00,VWS V14.01,2013-01-19 12:30:00,
2013-01-19 07:47:00,37.8,29.3,30.01,WSW,248,10.0,21.0,71,0.00,,---,0.00,VWS V14.01,2013-01-19 12:47:00,
2013-01-19 07:48:00,37.8,29.3,30.01,WSW,241,15.0,21.0,71,0.00,,---,0.00,VWS V14.01,2013-01-19 12:48:00,
2013-01-19 07:53:00,37.8,29.3,30.01,WSW,244,12.0,21.0,71,0.00,,---,0.00,VWS V14.01,2013-01-19 12:53:00,
2013-01-19 07:58:00,37.8,29.3,30.01,WSW,248,11.0,21.0,71,0.00,,---,0.00,VWS V14.01,2013-01-19 12:58:00,
2013-01-19 08:00:00,39.1,29.8,30.00,WSW,241,9.0,21.0,69,0.00,,---,0.00,VWS V14.01,2013-01-19 13:00:00,
2013-01-19 08:03:00,37.8,29.3,30.01,WSW,251,12.0,21.0,71,0.00,,---,0.00,VWS V14.01,2013-01-19 13:03:00,
2013-01-19 08:08:00,37.7,29.2,30.00,WSW,250,9.0,14.0,71,0.00,,---,0.00,VWS V14.01,2013-01-19 13:08:00,
2013-01-19 08:13:00,37.9,29.4,30.01,WSW,242,12.0,17.0,71,0.00,,---,0.00,VWS V14.01,2013-01-19 13:13:00,
2013-01-19 08:18:00,37.9,29.4,30.01,WSW,257,9.0,18.0,71,0.00,,---,0.00,VWS V14.01,2013-01-19 13:18:00,
2013-01-19 08:23:00,38.0,29.5,30.00,WSW,237,9.0,19.0,71,0.00,,---,0.00,VWS V14.01,2013-01-19 13:23:00,
2013-01-19 08:28:00,38.0,29.5,30.00,WSW,242,17.0,20.0,71,0.00,,---,0.00,VWS V14.01,2013-01-19 13:28:00,
2013-01-19 08:30:00,40.0,29.9,30.00,WSW,252,22.0,26.0,67,0.00,,---,0.00,VWS V14.01,2013-01-19 13:30:00,
2013-01-19 08:33:00,38.3,29.4,30.00,WSW,256,10.0,20.0,70,0.00,,---,0.00,VWS V14.01,2013-01-19 13:33:00,
2013-01-19 08:38:00,38.4,29.5,30.00,WSW,255,10.0,19.0,70,0.00,,---,0.00,VWS V14.01,2013-01-19 13:38:00,
2013-01-19 08:43:00,38.6,29.7,30.00,WSW,238,11.0,19.0,70,0.00,,---,0.00,VWS V14.01,2013-01-19 13:43:00,
2013-01-19 08:48:00,38.7,29.8,30.00,SW,233,9.0,21.0,70,0.00,,---,0.00,VWS V14.01,2013-01-19 13:48:00,
2013-01-19 08:53:00,38.8,29.9,30.00,WSW,243,18.0,21.0,70,0.00,,---,0.00,VWS V14.01,2013-01-19 13:53:00,
2013-01-19 08:58:00,39.0,29.7,30.00,WSW,253,17.0,21.0,69,0.00,,---,0.00,VWS V14.01,2013-01-19 13:58:00,
2013-01-19 09:00:00,40.7,29.9,30.00,WSW,253,15.0,25.0,65,0.00,,---,0.00,VWS V14.01,2013-01-19 14:00:00,
2013-01-19 09:03:00,39.1,29.8,30.00,SW,233,11.0,21.0,69,0.00,,---,0.00,VWS V14.01,2013-01-19 14:03:00,
2013-01-19 09:08:00,39.2,29.9,30.00,WSW,249,10.0,22.0,69,0.00,,---,0.00,VWS V14.01,2013-01-19 14:08:00,
2013-01-19 09:13:00,39.3,29.6,30.00,West,260,13.0,22.0,68,0.00,,---,0.00,VWS V14.01,2013-01-19 14:13:00,
2013-01-19 09:18:00,39.4,29.7,30.00,WSW,245,12.0,22.0,68,0.00,,---,0.00,VWS V14.01,2013-01-19 14:18:00,
2013-01-19 09:23:00,39.6,29.9,30.01,WSW,250,13.0,22.0,68,0.00,,---,0.00,VWS V14.01,2013-01-19 14:23:00,
2013-01-19 09:28:00,39.8,29.8,30.01,WSW,258,14.0,22.0,67,0.00,,---,0.00,VWS V14.01,2013-01-19 14:28:00,
2013-01-19 09:30:00,41.7,30.4,30.00,WSW,241,16.0,26.0,64,0.00,,---,0.00,VWS V14.01,2013-01-19 14:30:00,
2013-01-19 09:33:00,39.9,29.9,30.01,SW,236,17.0,22.0,67,0.00,,---,0.00,VWS V14.01,2013-01-19 14:33:00,
2013-01-19 09:38:00,40.1,30.0,30.00,WSW,258,17.0,25.0,67,0.00,,---,0.00,VWS V14.01,2013-01-19 14:38:00,
2013-01-19 09:43:00,40.1,30.0,30.01,WSW,254,12.0,25.0,67,0.00,,---,0.00,VWS V14.01,2013-01-19 14:43:00,
2013-01-19 09:48:00,40.3,29.9,30.00,WSW,248,13.0,25.0,66,0.00,,---,0.00,VWS V14.01,2013-01-19 14:48:00,
2013-01-19 09:53:00,40.5,30.0,30.00,WSW,239,16.0,25.0,66,0.00,,---,0.00,VWS V14.01,2013-01-19 14:53:00,
2013-01-19 09:58:00,40.6,30.1,30.00,West,263,15.0,25.0,66,0.00,,---,0.00,VWS V14.01,2013-01-19 14:58:00,
2013-01-19 10:00:00,42.6,30.5,29.98,WSW,247,20.0,27.0,62,0.00,,---,0.00,VWS V14.01,2013-01-19 15:00:00,
2013-01-19 10:03:00,40.7,30.2,30.00,SW,230,23.0,25.0,66,0.00,,---,0.00,VWS V14.01,2013-01-19 15:03:00,
2013-01-19 10:08:00,40.8,30.3,30.00,WSW,246,16.0,19.0,66,0.00,,---,0.00,VWS V14.01,2013-01-19 15:08:00,
2013-01-19 10:13:00,41.1,30.2,30.00,WSW,249,12.0,24.0,65,0.00,,---,0.00,VWS V14.01,2013-01-19 15:13:00,
2013-01-19 10:18:00,41.3,30.4,30.00,WSW,249,13.0,24.0,65,0.00,,---,0.00,VWS V14.01,2013-01-19 15:18:00,
2013-01-19 10:23:00,41.4,30.5,30.00,WSW,258,16.0,24.0,65,0.00,,---,0.00,VWS V14.01,2013-01-19 15:23:00,
2013-01-19 10:28:00,41.6,30.7,30.00,WSW,241,17.0,24.0,65,0.00,,---,0.00,VWS V14.01,2013-01-19 15:28:00,
2013-01-19 10:30:00,43.3,31.2,29.97,West,273,20.0,27.0,62,0.00,,---,0.00,VWS V14.01,2013-01-19 15:30:00,
2013-01-19 10:33:00,41.7,30.4,30.00,West,261,16.0,26.0,64,0.00,,---,0.00,VWS V14.01,2013-01-19 15:33:00,
2013-01-19 10:38:00,41.8,30.5,29.99,WSW,242,19.0,20.0,64,0.00,,---,0.00,VWS V14.01,2013-01-19 15:38:00,
2013-01-19 10:43:00,41.9,30.6,29.99,WSW,240,12.0,27.0,64,0.00,,---,0.00,VWS V14.01,2013-01-19 15:43:00,
2013-01-19 10:48:00,42.1,30.4,29.99,WSW,249,21.0,27.0,63,0.00,,---,0.00,VWS V14.01,2013-01-19 15:48:00,
2013-01-19 10:53:00,42.2,30.5,29.99,WSW,241,18.0,27.0,63,0.00,,---,0.00,VWS V14.01,2013-01-19 15:53:00,
2013-01-19 10:58:00,42.4,30.7,29.99,West,269,20.0,27.0,63,0.00,,---,0.00,VWS V14.01,2013-01-19 15:58:00,
2013-01-19 11:00:00,44.2,31.6,29.95,West,264,15.0,27.0,61,0.00,,---,0.00,VWS V14.01,2013-01-19 16:00:00,
2013-01-19 11:03:00,42.7,30.6,29.99,WSW,254,22.0,27.0,62,0.00,,---,0.00,VWS V14.01,2013-01-19 16:03:00,
2013-01-19 11:08:00,42.7,30.6,29.98,WSW,251,13.0,22.0,62,0.00,,---,0.00,VWS V14.01,2013-01-19 16:08:00,
2013-01-19 11:13:00,43.0,30.9,29.99,West,262,13.0,22.0,62,0.00,,---,0.00,VWS V14.01,2013-01-19 16:13:00,
2013-01-19 11:18:00,43.1,31.0,29.98,WSW,245,9.0,22.0,62,0.00,,---,0.00,VWS V14.01,2013-01-19 16:18:00,
2013-01-19 11:23:00,43.2,31.1,29.98,West,262,15.0,22.0,62,0.00,,---,0.00,VWS V14.01,2013-01-19 16:23:00,
2013-01-19 11:28:00,43.4,31.3,29.98,WSW,248,16.0,22.0,62,0.00,,---,0.00,VWS V14.01,2013-01-19 16:28:00,
2013-01-19 11:30:00,45.4,32.3,29.92,SW,232,13.0,33.0,60,0.00,,---,0.00,VWS V14.01,2013-01-19 16:30:00,
2013-01-19 11:33:00,43.3,31.2,29.98,West,263,16.0,27.0,62,0.00,,---,0.00,VWS V14.01,2013-01-19 16:33:00,
2013-01-19 11:38:00,43.3,31.2,29.97,WSW,256,13.0,23.0,62,0.00,,---,0.00,VWS V14.01,2013-01-19 16:38:00,
2013-01-19 11:43:00,43.5,31.4,29.96,SW,222,16.0,23.0,62,0.00,,---,0.00,VWS V14.01,2013-01-19 16:43:00,
2013-01-19 11:48:00,43.8,31.2,29.96,West,261,16.0,24.0,61,0.00,,---,0.00,VWS V14.01,2013-01-19 16:48:00,
2013-01-19 11:53:00,43.8,31.2,29.95,WSW,237,23.0,27.0,61,0.00,,---,0.00,VWS V14.01,2013-01-19 16:53:00,
2013-01-19 11:58:00,44.0,31.4,29.95,WSW,251,14.0,27.0,61,0.00,,---,0.00,VWS V14.01,2013-01-19 16:58:00,
2013-01-19 12:00:00,45.3,32.7,29.89,West,266,17.0,35.0,61,0.00,,---,0.00,VWS V14.01,2013-01-19 17:00:00,
2013-01-19 12:03:00,44.1,31.5,29.95,WSW,248,12.0,27.0,61,0.00,,---,0.00,VWS V14.01,2013-01-19 17:03:00,
2013-01-19 12:08:00,44.4,31.8,29.95,West,261,18.0,23.0,61,0.00,,---,0.00,VWS V14.01,2013-01-19 17:08:00,
2013-01-19 12:13:00,44.4,31.8,29.94,West,261,16.0,25.0,61,0.00,,---,0.00,VWS V14.01,2013-01-19 17:13:00,
2013-01-19 12:19:00,44.4,31.8,29.94,WSW,255,16.0,32.0,61,0.00,,---,0.00,VWS V14.01,2013-01-19 17:19:00,
2013-01-19 12:24:00,44.6,32.0,29.93,WSW,252,24.0,32.0,61,0.00,,---,0.00,VWS V14.01,2013-01-19 17:24:00,
2013-01-19 12:29:00,44.6,32.0,29.93,West,264,27.0,33.0,61,0.00,,---,0.00,VWS V14.01,2013-01-19 17:29:00,
2013-01-19 12:30:00,46.6,33.1,29.87,WSW,247,21.0,36.0,59,0.00,,---,0.00,VWS V14.01,2013-01-19 17:30:00,
2013-01-19 12:34:00,45.4,32.3,29.92,West,275,16.0,33.0,60,0.00,,---,0.00,VWS V14.01,2013-01-19 17:34:00,
2013-01-19 12:39:00,45.2,32.2,29.92,WSW,250,16.0,27.0,60,0.00,,---,0.00,VWS V14.01,2013-01-19 17:39:00,
2013-01-19 12:44:00,45.2,32.2,29.91,WSW,239,21.0,31.0,60,0.00,,---,0.00,VWS V14.01,2013-01-19 17:44:00,
2013-01-19 12:49:00,45.3,32.2,29.91,WSW,241,19.0,31.0,60,0.00,,---,0.00,VWS V14.01,2013-01-19 17:49:00,
2013-01-19 12:54:00,45.7,32.6,29.90,WSW,251,24.0,31.0,60,0.00,,---,0.00,VWS V14.01,2013-01-19 17:54:00,
2013-01-19 12:59:00,45.4,32.3,29.90,WSW,246,20.0,35.0,60,0.00,,---,0.00,VWS V14.01,2013-01-19 17:59:00,
2013-01-19 13:00:00,47.3,33.3,29.86,WSW,246,24.0,33.0,58,0.00,,---,0.00,VWS V14.01,2013-01-19 18:00:00,
2013-01-19 13:04:00,45.3,32.7,29.89,West,266,17.0,35.0,61,0.00,,---,0.00,VWS V14.01,2013-01-19 18:04:00,
2013-01-19 13:09:00,45.4,32.8,29.90,West,267,14.0,25.0,61,0.00,,---,0.00,VWS V14.01,2013-01-19 18:09:00,
2013-01-19 13:14:00,45.8,32.7,29.89,West,276,16.0,25.0,60,0.00,,---,0.00,VWS V14.01,2013-01-19 18:14:00,
2013-01-19 13:19:00,46.1,33.0,29.89,WSW,252,19.0,29.0,60,0.00,,---,0.00,VWS V14.01,2013-01-19 18:19:00,
2013-01-19 13:24:00,46.1,32.6,29.88,WSW,245,26.0,36.0,59,0.00,,---,0.00,VWS V14.01,2013-01-19 18:24:00,
2013-01-19 13:29:00,46.1,33.0,29.88,WSW,241,16.0,36.0,60,0.00,,---,0.00,VWS V14.01,2013-01-19 18:29:00,
2013-01-19 13:30:00,48.0,33.9,29.85,WSW,239,13.0,33.0,58,0.00,,---,0.00,VWS V14.01,2013-01-19 18:30:00,
2013-01-19 13:35:00,46.5,33.0,29.88,West,270,23.0,29.0,59,0.00,,---,0.00,VWS V14.01,2013-01-19 18:35:00,
2013-01-19 13:40:00,46.6,33.0,29.87,WSW,255,28.0,33.0,59,0.00,,---,0.00,VWS V14.01,2013-01-19 18:40:00,
2013-01-19 13:45:00,46.8,33.7,29.87,WNW,295,15.0,33.0,60,0.00,,---,0.00,VWS V14.01,2013-01-19 18:45:00,
2013-01-19 13:50:00,47.2,33.2,29.87,WSW,243,20.0,33.0,58,0.00,,---,0.00,VWS V14.01,2013-01-19 18:50:00,
2013-01-19 13:55:00,47.1,33.1,29.87,West,264,14.0,33.0,58,0.00,,---,0.00,VWS V14.01,2013-01-19 18:55:00,
2013-01-19 14:00:00,46.9,33.3,29.86,WSW,251,18.0,33.0,59,0.00,,---,0.00,VWS V14.01,2013-01-19 19:00:00,
2013-01-19 14:05:00,47.4,33.4,29.86,West,272,14.0,24.0,58,0.00,,---,0.00,VWS V14.01,2013-01-19 19:05:00,
2013-01-19 14:10:00,47.4,33.4,29.86,West,265,17.0,33.0,58,0.00,,---,0.00,VWS V14.01,2013-01-19 19:10:00,
2013-01-19 14:15:00,47.8,33.8,29.86,WSW,243,17.0,33.0,58,0.00,,---,0.00,VWS V14.01,2013-01-19 19:15:00,
2013-01-19 14:20:00,47.6,34.0,29.85,West,266,26.0,33.0,59,0.00,,---,0.00,VWS V14.01,2013-01-19 19:20:00,
2013-01-19 14:25:00,47.5,33.5,29.86,WSW,253,21.0,33.0,58,0.00,,---,0.00,VWS V14.01,2013-01-19 19:25:00,
2013-01-19 14:30:00,47.3,33.7,29.85,West,263,14.0,33.0,59,0.00,,---,0.00,VWS V14.01,2013-01-19 19:30:00,
2013-01-19 14:35:00,47.9,33.8,29.85,West,278,20.0,25.0,58,0.00,,---,0.00,VWS V14.01,2013-01-19 19:35:00,
2013-01-19 14:40:00,47.5,33.9,29.85,WSW,251,19.0,32.0,59,0.00,,---,0.00,VWS V14.01,2013-01-19 19:40:00,
2013-01-19 14:46:00,47.6,34.0,29.85,WSW,258,22.0,32.0,59,0.00,,---,0.00,VWS V14.01,2013-01-19 19:46:00,
2013-01-19 14:51:00,47.8,33.8,29.84,West,270,21.0,32.0,58,0.00,,---,0.00,VWS V14.01,2013-01-19 19:51:00,
2013-01-19 14:56:00,48.3,34.2,29.84,WSW,250,15.0,32.0,58,0.00,,---,0.00,VWS V14.01,2013-01-19 19:56:00,
2013-01-19 15:00:00,47.6,34.4,29.82,WSW,250,20.0,27.0,60,0.00,,---,0.00,VWS V14.01,2013-01-19 20:00:00,
2013-01-19 15:01:00,48.3,34.2,29.84,SW,233,25.0,32.0,58,0.00,,---,0.00,VWS V14.01,2013-01-19 20:01:00,
2013-01-19 15:06:00,48.2,34.1,29.83,WSW,247,23.0,23.0,58,0.00,,---,0.00,VWS V14.01,2013-01-19 20:06:00,
2013-01-19 15:11:00,48.2,34.1,29.83,West,260,15.0,24.0,58,0.00,,---,0.00,VWS V14.01,2013-01-19 20:11:00,
2013-01-19 15:17:00,48.3,34.2,29.83,WSW,246,14.0,25.0,58,0.00,,---,0.00,VWS V14.01,2013-01-19 20:17:00,
2013-01-19 15:22:00,47.8,34.2,29.83,WSW,256,14.0,26.0,59,0.00,,---,0.00,VWS V14.01,2013-01-19 20:22:00,
2013-01-19 15:27:00,47.8,34.2,29.83,West,262,15.0,26.0,59,0.00,,---,0.00,VWS V14.01,2013-01-19 20:27:00,
2013-01-19 15:30:00,46.9,34.6,29.83,WSW,244,12.0,24.0,62,0.00,,---,0.00,VWS V14.01,2013-01-19 20:30:00,
2013-01-19 15:32:00,47.9,34.3,29.83,WSW,238,17.0,26.0,59,0.00,,---,0.00,VWS V14.01,2013-01-19 20:32:00,
2013-01-19 15:37:00,47.7,34.5,29.83,WSW,256,19.0,23.0,60,0.00,,---,0.00,VWS V14.01,2013-01-19 20:37:00,
2013-01-19 15:42:00,47.7,34.1,29.82,West,260,14.0,26.0,59,0.00,,---,0.00,VWS V14.01,2013-01-19 20:42:00,
2013-01-19 15:47:00,47.8,34.6,29.82,West,261,18.0,26.0,60,0.00,,---,0.00,VWS V14.01,2013-01-19 20:47:00,
2013-01-19 15:52:00,47.6,34.4,29.82,WSW,247,11.0,26.0,60,0.00,,---,0.00,VWS V14.01,2013-01-19 20:52:00,
2013-01-19 15:58:00,47.6,34.4,29.82,WSW,245,15.0,26.0,60,0.00,,---,0.00,VWS V14.01,2013-01-19 20:58:00,
2013-01-19 16:00:00,46.4,34.5,29.82,WSW,253,6.0,19.0,63,0.00,,---,0.00,VWS V14.01,2013-01-19 21:00:00,
2013-01-19 16:03:00,47.5,34.3,29.82,West,266,20.0,26.0,60,0.00,,---,0.00,VWS V14.01,2013-01-19 21:03:00,
2013-01-19 16:08:00,47.6,34.4,29.82,West,260,14.0,20.0,60,0.00,,---,0.00,VWS V14.01,2013-01-19 21:08:00,
2013-01-19 16:13:00,47.6,34.4,29.82,WSW,241,11.0,22.0,60,0.00,,---,0.00,VWS V14.01,2013-01-19 21:13:00,
2013-01-19 16:19:00,47.4,34.6,29.82,WSW,257,12.0,24.0,61,0.00,,---,0.00,VWS V14.01,2013-01-19 21:19:00,
2013-01-19 16:24:00,47.1,34.4,29.82,West,266,10.0,24.0,61,0.00,,---,0.00,VWS V14.01,2013-01-19 21:24:00,
2013-01-19 16:29:00,47.0,34.7,29.83,West,270,15.0,24.0,62,0.00,,---,0.00,VWS V14.01,2013-01-19 21:29:00,
2013-01-19 16:30:00,46.3,34.8,29.80,West,262,13.0,19.0,64,0.00,,---,0.00,VWS V14.01,2013-01-19 21:30:00,
2013-01-19 16:34:00,46.9,34.6,29.83,WSW,254,10.0,12.0,62,0.00,,---,0.00,VWS V14.01,2013-01-19 21:34:00,
2013-01-19 16:39:00,46.9,34.6,29.83,WSW,253,17.0,19.0,62,0.00,,---,0.00,VWS V14.01,2013-01-19 21:39:00,
2013-01-19 16:44:00,46.7,34.4,29.82,West,261,10.0,19.0,62,0.00,,---,0.00,VWS V14.01,2013-01-19 21:44:00,
2013-01-19 16:49:00,46.6,34.7,29.82,WSW,239,8.0,19.0,63,0.00,,---,0.00,VWS V14.01,2013-01-19 21:49:00,
2013-01-19 16:55:00,46.5,34.6,29.82,WSW,250,10.0,19.0,63,0.00,,---,0.00,VWS V14.01,2013-01-19 21:55:00,
2013-01-19 17:00:00,46.5,34.6,29.82,WSW,247,6.0,19.0,63,0.00,,---,0.00,VWS V14.01,2013-01-19 22:00:00,
2013-01-19 17:05:00,46.4,34.5,29.82,SW,232,9.0,12.0,63,0.00,,---,0.00,VWS V14.01,2013-01-19 22:05:00,
2013-01-19 17:10:00,46.4,34.5,29.81,West,260,8.0,15.0,63,0.00,,---,0.00,VWS V14.01,2013-01-19 22:10:00,
2013-01-19 17:15:00,46.6,34.7,29.81,WSW,241,10.0,15.0,63,0.00,,---,0.00,VWS V14.01,2013-01-19 22:15:00,
2013-01-19 17:21:00,46.7,34.8,29.81,West,260,13.0,16.0,63,0.00,,---,0.00,VWS V14.01,2013-01-19 22:21:00,
2013-01-19 17:26:00,46.5,34.6,29.81,SW,233,15.0,18.0,63,0.00,,---,0.00,VWS V14.01,2013-01-19 22:26:00,
2013-01-19 17:30:00,45.0,34.7,29.81,WSW,242,11.0,19.0,67,0.00,,---,0.00,VWS V14.01,2013-01-19 22:30:00,
2013-01-19 17:31:00,46.4,34.5,29.81,SW,235,14.0,19.0,63,0.00,,---,0.00,VWS V14.01,2013-01-19 22:31:00,
2013-01-19 17:36:00,46.2,34.7,29.81,West,269,11.0,17.0,64,0.00,,---,0.00,VWS V14.01,2013-01-19 22:36:00,
2013-01-19 17:41:00,46.1,34.6,29.80,WSW,249,9.0,22.0,64,0.00,,---,0.00,VWS V14.01,2013-01-19 22:41:00,
2013-01-19 17:46:00,46.1,34.6,29.81,WSW,239,15.0,22.0,64,0.00,,---,0.00,VWS V14.01,2013-01-19 22:46:00,
2013-01-19 17:52:00,45.9,34.4,29.80,WSW,252,12.0,22.0,64,0.00,,---,0.00,VWS V14.01,2013-01-19 22:52:00,
2013-01-19 17:57:00,45.8,34.7,29.80,WSW,246,11.0,22.0,65,0.00,,---,0.00,VWS V14.01,2013-01-19 22:57:00,
2013-01-19 18:00:00,45.0,35.1,29.81,WSW,253,12.0,20.0,68,0.00,,---,0.00,VWS V14.01,2013-01-19 23:00:00,
2013-01-19 18:02:00,45.6,34.5,29.81,West,260,12.0,22.0,65,0.00,,---,0.00,VWS V14.01,2013-01-19 23:02:00,
2013-01-19 18:07:00,45.7,34.6,29.81,WSW,258,10.0,17.0,65,0.00,,---,0.00,VWS V14.01,2013-01-19 23:07:00,
2013-01-19 18:12:00,45.5,34.8,29.81,WSW,249,10.0,18.0,66,0.00,,---,0.00,VWS V14.01,2013-01-19 23:12:00,
2013-01-19 18:17:00,45.5,34.8,29.81,WSW,251,12.0,19.0,66,0.00,,---,0.00,VWS V14.01,2013-01-19 23:17:00,
2013-01-19 18:22:00,45.3,34.6,29.81,WSW,245,11.0,19.0,66,0.00,,---,0.00,VWS V14.01,2013-01-19 23:22:00,
2013-01-19 18:27:00,45.2,34.5,29.81,WSW,252,12.0,19.0,66,0.00,,---,0.00,VWS V14.01,2013-01-19 23:27:00,
2013-01-19 18:30:00,45.1,35.5,29.81,SW,235,12.0,22.0,69,0.00,,---,0.00,VWS V14.01,2013-01-19 23:30:00,
2013-01-19 18:32:00,45.1,34.8,29.81,WSW,253,6.0,19.0,67,0.00,,---,0.00,VWS V14.01,2013-01-19 23:32:00,
2013-01-19 18:37:00,45.0,34.7,29.81,WSW,256,14.0,17.0,67,0.00,,---,0.00,VWS V14.01,2013-01-19 23:37:00,
2013-01-19 18:42:00,45.1,34.8,29.81,WSW,241,13.0,20.0,67,0.00,,---,0.00,VWS V14.01,2013-01-19 23:42:00,
2013-01-19 18:47:00,45.2,34.9,29.81,WSW,249,12.0,20.0,67,0.00,,---,0.00,VWS V14.01,2013-01-19 23:47:00,
2013-01-19 18:53:00,44.9,35.0,29.82,WSW,246,9.0,20.0,68,0.00,,---,0.00,VWS V14.01,2013-01-19 23:53:00,
2013-01-19 18:58:00,44.8,34.9,29.81,West,264,12.0,20.0,68,0.00,,---,0.00,VWS V14.01,2013-01-19 23:58:00,
2013-01-19 19:00:00,44.5,35.7,29.80,WSW,249,16.0,23.0,71,0.00,,---,0.00,VWS V14.01,2013-01-20 00:00:00,
2013-01-19 19:03:00,45.0,35.1,29.81,WSW,254,14.0,20.0,68,0.00,,---,0.00,VWS V14.01,2013-01-20 00:03:00,
2013-01-19 19:08:00,44.8,34.9,29.81,West,262,13.0,18.0,68,0.00,,---,0.00,VWS V14.01,2013-01-20 00:08:00,
2013-01-19 19:13:00,44.9,35.0,29.81,WSW,254,11.0,20.0,68,0.00,,---,0.00,VWS V14.01,2013-01-20 00:13:00,
2013-01-19 19:18:00,44.9,35.0,29.81,WSW,255,12.0,21.0,68,0.00,,---,0.00,VWS V14.01,2013-01-20 00:18:00,
2013-01-19 19:23:00,44.9,35.4,29.80,WSW,237,14.0,21.0,69,0.00,,---,0.00,VWS V14.01,2013-01-20 00:23:00,
2013-01-19 19:28:00,45.0,35.5,29.81,WSW,243,13.0,22.0,69,0.00,,---,0.00,VWS V14.01,2013-01-20 00:28:00,
2013-01-19 19:30:00,44.3,35.9,29.80,WSW,254,16.0,25.0,72,0.00,,---,0.00,VWS V14.01,2013-01-20 00:30:00,
2013-01-19 19:33:00,45.0,35.5,29.81,WSW,247,18.0,22.0,69,0.00,,---,0.00,VWS V14.01,2013-01-20 00:33:00,
2013-01-19 19:38:00,44.9,35.4,29.81,WSW,258,22.0,22.0,69,0.00,,---,0.00,VWS V14.01,2013-01-20 00:38:00,
2013-01-19 19:43:00,44.9,35.7,29.81,WSW,245,15.0,23.0,70,0.00,,---,0.00,VWS V14.01,2013-01-20 00:43:00,
2013-01-19 19:48:00,44.7,35.5,29.81,West,259,13.0,23.0,70,0.00,,---,0.00,VWS V14.01,2013-01-20 00:48:00,
2013-01-19 19:53:00,44.5,35.3,29.81,West,260,11.0,23.0,70,0.00,,---,0.00,VWS V14.01,2013-01-20 00:53:00,
2013-01-19 19:58:00,44.5,35.7,29.81,WSW,247,16.0,23.0,71,0.00,,---,0.00,VWS V14.01,2013-01-20 00:58:00,
2013-01-19 20:00:00,44.9,36.4,29.79,WSW,258,19.0,29.0,72,0.00,,---,0.00,VWS V14.01,2013-01-20 01:00:00,
2013-01-19 20:03:00,44.4,35.6,29.80,WSW,246,20.0,23.0,71,0.00,,---,0.00,VWS V14.01,2013-01-20 01:03:00,
2013-01-19 20:08:00,44.5,35.7,29.81,WSW,251,12.0,24.0,71,0.00,,---,0.00,VWS V14.01,2013-01-20 01:08:00,
2013-01-19 20:13:00,44.4,35.6,29.80,WSW,254,19.0,24.0,71,0.00,,---,0.00,VWS V14.01,2013-01-20 01:13:00,
2013-01-19 20:19:00,44.4,35.6,29.80,WSW,258,16.0,24.0,71,0.00,,---,0.00,VWS V14.01,2013-01-20 01:19:00,
2013-01-19 20:24:00,44.3,35.9,29.80,WSW,253,11.0,24.0,72,0.00,,---,0.00,VWS V14.01,2013-01-20 01:24:00,
2013-01-19 20:29:00,44.4,36.0,29.80,West,262,25.0,25.0,72,0.00,,---,0.00,VWS V14.01,2013-01-20 01:29:00,
2013-01-19 20:30:00,44.4,36.3,29.79,West,263,22.0,28.0,73,0.00,,---,0.00,VWS V14.01,2013-01-20 01:30:00,
2013-01-19 20:34:00,44.3,35.9,29.80,West,260,10.0,25.0,72,0.00,,---,0.00,VWS V14.01,2013-01-20 01:34:00,
2013-01-19 20:39:00,44.5,36.0,29.79,West,268,15.0,26.0,72,0.00,,---,0.00,VWS V14.01,2013-01-20 01:39:00,
2013-01-19 20:44:00,44.4,36.0,29.79,WSW,241,20.0,26.0,72,0.00,,---,0.00,VWS V14.01,2013-01-20 01:44:00,
2013-01-19 20:49:00,44.3,35.9,29.79,WSW,258,21.0,26.0,72,0.00,,---,0.00,VWS V14.01,2013-01-20 01:49:00,
2013-01-19 20:54:00,44.8,36.3,29.79,West,262,24.0,26.0,72,0.00,,---,0.00,VWS V14.01,2013-01-20 01:54:00,
2013-01-19 20:59:00,44.9,36.4,29.79,WSW,256,21.0,26.0,72,0.00,,---,0.00,VWS V14.01,2013-01-20 01:59:00,
2013-01-19 21:00:00,44.0,36.3,29.78,WSW,249,24.0,28.0,74,0.00,,---,0.00,VWS V14.01,2013-01-20 02:00:00,
2013-01-19 21:04:00,44.9,36.4,29.79,West,272,18.0,19.0,72,0.00,,---,0.00,VWS V14.01,2013-01-20 02:04:00,
2013-01-19 21:09:00,44.9,36.4,29.79,West,259,23.0,27.0,72,0.00,,---,0.00,VWS V14.01,2013-01-20 02:09:00,
2013-01-19 21:14:00,45.1,36.6,29.78,WSW,257,24.0,27.0,72,0.00,,---,0.00,VWS V14.01,2013-01-20 02:14:00,
2013-01-19 21:19:00,45.0,36.5,29.79,WSW,256,19.0,28.0,72,0.00,,---,0.00,VWS V14.01,2013-01-20 02:19:00,
2013-01-19 21:24:00,44.7,36.2,29.79,West,264,20.0,28.0,72,0.00,,---,0.00,VWS V14.01,2013-01-20 02:24:00,
2013-01-19 21:29:00,44.7,36.6,29.79,West,265,18.0,28.0,73,0.00,,---,0.00,VWS V14.01,2013-01-20 02:29:00,
2013-01-19 21:30:00,43.6,35.5,29.78,West,267,19.0,29.0,73,0.00,,---,0.00,VWS V14.01,2013-01-20 02:30:00,
2013-01-19 21:34:00,44.4,36.3,29.79,WSW,255,18.0,24.0,73,0.00,,---,0.00,VWS V14.01,2013-01-20 02:34:00,
2013-01-19 21:40:00,44.5,36.4,29.79,West,271,16.0,28.0,73,0.00,,---,0.00,VWS V14.01,2013-01-20 02:40:00,
2013-01-19 21:45:00,44.3,36.2,29.79,West,262,15.0,28.0,73,0.00,,---,0.00,VWS V14.01,2013-01-20 02:45:00,
2013-01-19 21:50:00,44.1,36.4,29.79,WSW,239,21.0,28.0,74,0.00,,---,0.00,VWS V14.01,2013-01-20 02:50:00,
2013-01-19 21:55:00,44.1,36.4,29.78,WSW,239,16.0,28.0,74,0.00,,---,0.00,VWS V14.01,2013-01-20 02:55:00,
2013-01-19 22:00:00,44.0,36.3,29.78,West,263,18.0,28.0,74,0.00,,---,0.00,VWS V14.01,2013-01-20 03:00:00,
2013-01-19 22:05:00,44.0,36.3,29.78,West,268,23.0,24.0,74,0.00,,---,0.00,VWS V14.01,2013-01-20 03:05:00,
2013-01-19 22:10:00,43.9,36.2,29.78,West,262,17.0,29.0,74,0.00,,---,0.00,VWS V14.01,2013-01-20 03:10:00,
2013-01-19 22:15:00,43.9,36.2,29.78,West,281,24.0,29.0,74,0.00,,---,0.00,VWS V14.01,2013-01-20 03:15:00,
2013-01-19 22:20:00,43.9,35.8,29.78,West,278,14.0,29.0,73,0.00,,---,0.00,VWS V14.01,2013-01-20 03:20:00,
2013-01-19 22:25:00,43.8,35.7,29.78,West,259,15.0,29.0,73,0.00,,---,0.00,VWS V14.01,2013-01-20 03:25:00,
2013-01-19 22:30:00,43.7,35.6,29.78,West,268,15.0,29.0,73,0.00,,---,0.00,VWS V14.01,2013-01-20 03:30:00,
2013-01-19 22:35:00,43.6,35.5,29.78,SW,232,15.0,19.0,73,0.00,,---,0.00,VWS V14.01,2013-01-20 03:35:00,
2013-01-19 22:40:00,43.6,35.5,29.78,West,271,18.0,25.0,73,0.00,,---,0.00,VWS V14.01,2013-01-20 03:40:00,
2013-01-19 22:45:00,43.3,35.2,29.78,West,260,20.0,28.0,73,0.00,,---,0.00,VWS V14.01,2013-01-20 03:45:00,
2013-01-19 22:50:00,43.4,35.3,29.78,West,265,18.0,28.0,73,0.00,,---,0.00,VWS V14.01,2013-01-20 03:50:00,
2013-01-19 22:55:00,43.5,35.1,29.78,West,264,21.0,28.0,72,0.00,,---,0.00,VWS V14.01,2013-01-20 03:55:00,
2013-01-19 23:00:00,43.4,35.0,29.78,West,281,19.0,33.0,72,0.00,,---,0.00,VWS V14.01,2013-01-20 04:00:00,
2013-01-19 23:05:00,43.2,35.1,29.78,West,272,25.0,25.0,73,0.00,,---,0.00,VWS V14.01,2013-01-20 04:05:00,
2013-01-19 23:11:00,42.9,34.8,29.79,West,269,20.0,27.0,73,0.00,,---,0.00,VWS V14.01,2013-01-20 04:11:00,
2013-01-19 23:16:00,42.7,34.7,29.78,West,277,21.0,27.0,73,0.00,,---,0.00,VWS V14.01,2013-01-20 04:16:00,
2013-01-19 23:21:00,42.8,34.8,29.79,West,271,19.0,32.0,73,0.00,,---,0.00,VWS V14.01,2013-01-20 04:21:00,
2013-01-19 23:26:00,42.7,34.7,29.79,WSW,256,17.0,32.0,73,0.00,,---,0.00,VWS V14.01,2013-01-20 04:26:00,
2013-01-19 23:30:00,41.1,32.4,29.79,WNW,291,21.0,36.0,71,0.01,,---,0.01,VWS V14.01,2013-01-20 04:30:00,
2013-01-19 23:31:00,42.5,34.5,29.79,West,261,24.0,32.0,73,0.00,,---,0.00,VWS V14.01,2013-01-20 04:31:00,
2013-01-19 23:37:00,42.6,34.6,29.79,WNW,291,26.0,30.0,73,0.00,,---,0.00,VWS V14.01,2013-01-20 04:37:00,
2013-01-19 23:42:00,42.6,34.2,29.79,WNW,287,24.0,33.0,72,0.00,,---,0.00,VWS V14.01,2013-01-20 04:42:00,
2013-01-19 23:46:00,42.3,33.9,29.80,West,276,24.0,33.0,72,0.00,,---,0.00,VWS V14.01,2013-01-20 04:46:00,
2013-01-19 23:52:00,42.2,33.5,29.80,WNW,294,22.0,33.0,71,0.00,,---,0.00,VWS V14.01,2013-01-20 04:52:00,
2013-01-19 23:57:00,42.3,33.2,29.79,West,278,25.0,37.0,70,0.00,,---,0.00,VWS V14.01,2013-01-20 04:57:00,